DENIK EDFE-LSZA

Flight info

Callsign DENIK
Flight time 1h 50m
Altitude 19000
Route KRH DCT SUL DCT EDNY DCT KPT DCT SRN
Aircraft BT36/L-BDFGLORY/S

Departure

Time 2026-04-24 20:39
Airport Frankfurt-Egelsbach Airport (EDFE)

Arrival

Time 2026-04-24 22:29
Airport Lugano Airport (LSZA)
Time Latitude Longitude Altitude Speed Heading
2026-04-24 20:24 49.96203 8.64292 387 ft 0 kts 266°
2026-04-24 20:34 49.96203 8.64291 387 ft 1 kts 266°
2026-04-24 20:35 49.96201 8.64277 387 ft 6 kts 243°
2026-04-24 20:35 49.96175 8.64366 388 ft 17 kts 88°
2026-04-24 20:35 49.96187 8.64579 388 ft 21 kts 91°
2026-04-24 20:35 49.96197 8.64813 387 ft 22 kts 86°
2026-04-24 20:36 49.96191 8.64990 387 ft 15 kts 117°
2026-04-24 20:36 49.96175 8.65024 387 ft 0 kts 158°
2026-04-24 20:38 49.96168 8.65035 387 ft 0 kts 123°
2026-04-24 20:38 49.96151 8.65077 387 ft 12 kts 128°
2026-04-24 20:38 49.96120 8.64918 386 ft 47 kts 265°
2026-04-24 20:38 49.96055 8.64093 528 ft 91 kts 267°
2026-04-24 20:39 49.95972 8.63045 851 ft 104 kts 264°
2026-04-24 20:39 49.95828 8.61843 1138 ft 119 kts 259°
2026-04-24 20:39 49.95275 8.60913 1353 ft 123 kts 206°
2026-04-24 20:39 49.94394 8.60723 1286 ft 139 kts 179°
2026-04-24 20:40 49.93381 8.60683 1300 ft 149 kts 181°
2026-04-24 20:40 49.92365 8.60572 1330 ft 147 kts 185°
2026-04-24 20:40 49.91335 8.60388 1325 ft 148 kts 188°
2026-04-24 20:40 49.90308 8.60171 1304 ft 149 kts 187°
2026-04-24 20:41 49.89272 8.59999 1279 ft 151 kts 186°
2026-04-24 20:41 49.88227 8.59826 1246 ft 152 kts 186°
2026-04-24 20:41 49.87189 8.59703 1227 ft 148 kts 176°
2026-04-24 20:41 49.86191 8.60012 1215 ft 146 kts 159°
2026-04-24 20:42 49.85310 8.60788 1197 ft 142 kts 141°
2026-04-24 20:42 49.84560 8.61780 1143 ft 143 kts 136°
2026-04-24 20:42 49.83838 8.62799 1127 ft 142 kts 133°
2026-04-24 20:42 49.83123 8.63899 1151 ft 148 kts 133°
2026-04-24 20:43 49.82402 8.64988 1379 ft 145 kts 134°
2026-04-24 20:43 49.81657 8.66030 1596 ft 145 kts 136°
2026-04-24 20:43 49.80869 8.67024 1791 ft 146 kts 141°
2026-04-24 20:43 49.79963 8.67720 2023 ft 148 kts 160°
2026-04-24 20:44 49.78918 8.67924 2212 ft 153 kts 181°
2026-04-24 20:44 49.77873 8.67827 2355 ft 152 kts 185°
2026-04-24 20:44 49.77171 8.67651 2428 ft 154 kts 191°
2026-04-24 20:45 49.76310 8.67348 2499 ft 156 kts 194°
2026-04-24 20:45 49.75287 8.66914 2702 ft 149 kts 193°
2026-04-24 20:45 49.74266 8.66550 2901 ft 152 kts 194°
2026-04-24 20:45 49.73250 8.66091 3000 ft 154 kts 195°
2026-04-24 20:46 49.72200 8.65597 3049 ft 159 kts 197°
2026-04-24 20:46 49.71136 8.65052 3121 ft 164 kts 199°
2026-04-24 20:46 49.70029 8.64475 3105 ft 167 kts 200°
2026-04-24 20:46 49.68906 8.63915 3046 ft 172 kts 192°
2026-04-24 20:47 49.67721 8.63595 3048 ft 171 kts 189°
2026-04-24 20:47 49.66555 8.63312 3047 ft 170 kts 188°
2026-04-24 20:47 49.65395 8.63009 3068 ft 173 kts 188°
2026-04-24 20:47 49.64206 8.62713 3055 ft 175 kts 188°
2026-04-24 20:48 49.63018 8.62430 3057 ft 173 kts 188°
2026-04-24 20:48 49.61816 8.62147 3034 ft 175 kts 188°
2026-04-24 20:48 49.60609 8.61862 2988 ft 176 kts 187°
2026-04-24 20:48 49.59409 8.61587 2999 ft 175 kts 188°
2026-04-24 20:49 49.58196 8.61294 2989 ft 175 kts 188°
2026-04-24 20:49 49.57011 8.61007 3006 ft 173 kts 188°
2026-04-24 20:49 49.55821 8.60730 2997 ft 174 kts 188°
2026-04-24 20:49 49.54636 8.60450 2999 ft 173 kts 188°
2026-04-24 20:50 49.53448 8.60167 2994 ft 170 kts 188°
2026-04-24 20:50 49.52290 8.59896 2995 ft 169 kts 188°
2026-04-24 20:50 49.51095 8.59614 2998 ft 175 kts 188°
2026-04-24 20:50 49.49880 8.59327 2998 ft 179 kts 188°
2026-04-24 20:51 49.48657 8.59037 3004 ft 180 kts 188°
2026-04-24 20:51 49.47419 8.58744 3007 ft 181 kts 188°
2026-04-24 20:51 49.46157 8.58447 3000 ft 183 kts 188°
2026-04-24 20:51 49.44902 8.58154 3010 ft 183 kts 188°
2026-04-24 20:52 49.43638 8.57859 3009 ft 185 kts 188°
2026-04-24 20:52 49.42374 8.57563 3000 ft 185 kts 188°
2026-04-24 20:52 49.41116 8.57269 3004 ft 183 kts 188°
2026-04-24 20:52 49.39845 8.56981 3008 ft 184 kts 188°
2026-04-24 20:53 49.38580 8.56693 3006 ft 187 kts 188°
2026-04-24 20:53 49.37288 8.56400 3005 ft 188 kts 188°
2026-04-24 20:53 49.36002 8.56105 2999 ft 186 kts 188°
2026-04-24 20:53 49.34710 8.55812 2998 ft 185 kts 188°
2026-04-24 20:54 49.33439 8.55517 2996 ft 185 kts 188°
2026-04-24 20:54 49.32174 8.55233 3001 ft 187 kts 188°
2026-04-24 20:54 49.30877 8.54937 2998 ft 188 kts 188°
2026-04-24 20:54 49.29587 8.54902 2992 ft 187 kts 166°
2026-04-24 20:55 49.28351 8.55566 2988 ft 188 kts 158°
2026-04-24 20:55 49.27142 8.56262 2992 ft 184 kts 158°
2026-04-24 20:55 49.25954 8.56949 2982 ft 183 kts 158°
2026-04-24 20:55 49.24772 8.57639 2986 ft 183 kts 158°
2026-04-24 20:56 49.23575 8.58339 2986 ft 182 kts 158°
2026-04-24 20:56 49.22402 8.59026 2982 ft 182 kts 158°
2026-04-24 20:56 49.21207 8.59725 2988 ft 182 kts 158°
2026-04-24 20:56 49.20028 8.60414 2989 ft 183 kts 158°
2026-04-24 20:57 49.18846 8.61105 3003 ft 184 kts 158°
2026-04-24 20:57 49.17623 8.61833 2986 ft 190 kts 158°
2026-04-24 20:57 49.16393 8.62559 2981 ft 191 kts 158°
2026-04-24 20:57 49.15155 8.63287 2979 ft 190 kts 158°
2026-04-24 20:58 49.13918 8.64008 2991 ft 192 kts 158°
2026-04-24 20:58 49.12660 8.64737 2998 ft 194 kts 159°
2026-04-24 20:58 49.11390 8.65476 2978 ft 194 kts 158°
2026-04-24 20:58 49.10154 8.66193 2979 ft 193 kts 158°
2026-04-24 20:59 49.08824 8.66502 2978 ft 191 kts 181°
2026-04-24 20:59 49.07499 8.66414 2992 ft 191 kts 183°
2026-04-24 20:59 49.06184 8.66322 2995 ft 192 kts 182°
2026-04-24 20:59 49.04840 8.66233 2988 ft 192 kts 182°
2026-04-24 21:00 49.03519 8.66132 3012 ft 190 kts 186°
2026-04-24 21:00 49.02205 8.65750 2996 ft 194 kts 192°
2026-04-24 21:00 49.00902 8.65365 2985 ft 189 kts 195°
2026-04-24 21:00 48.99847 8.64268 2979 ft 185 kts 232°
2026-04-24 21:01 48.99116 8.62677 2988 ft 184 kts 237°
2026-04-24 21:01 48.98395 8.61057 2985 ft 183 kts 237°
2026-04-24 21:01 48.97921 8.59987 2993 ft 186 kts 237°
2026-04-24 21:01 48.96926 8.57804 2986 ft 191 kts 229°
2026-04-24 21:02 48.95770 8.56856 2978 ft 195 kts 188°
2026-04-24 21:02 48.94871 8.56948 2974 ft 192 kts 164°
2026-04-24 21:02 48.93224 8.57874 2993 ft 188 kts 157°
2026-04-24 21:02 48.92416 8.58355 3021 ft 189 kts 157°
2026-04-24 21:03 48.91196 8.59182 2984 ft 189 kts 141°
2026-04-24 21:03 48.90135 8.60280 2979 ft 187 kts 154°
2026-04-24 21:03 48.88932 8.61031 2977 ft 191 kts 157°
2026-04-24 21:03 48.87308 8.62039 2985 ft 187 kts 151°
2026-04-24 21:04 48.86615 8.62821 2981 ft 187 kts 136°
2026-04-24 21:04 48.85641 8.64121 2982 ft 186 kts 137°
2026-04-24 21:04 48.84663 8.65413 2976 ft 185 kts 137°
2026-04-24 21:04 48.83695 8.66695 2988 ft 184 kts 137°
2026-04-24 21:05 48.82656 8.67839 2988 ft 189 kts 149°
2026-04-24 21:05 48.81455 8.68596 2989 ft 187 kts 162°
2026-04-24 21:05 48.80164 8.68881 2990 ft 188 kts 180°
2026-04-24 21:05 48.78864 8.68791 2990 ft 187 kts 183°
2026-04-24 21:06 48.77561 8.68667 2993 ft 186 kts 184°
2026-04-24 21:06 48.75836 8.68479 2984 ft 188 kts 184°
2026-04-24 21:06 48.74963 8.68383 3064 ft 183 kts 184°
2026-04-24 21:06 48.73734 8.68254 3323 ft 176 kts 183°
2026-04-24 21:07 48.72545 8.68129 3555 ft 168 kts 184°
2026-04-24 21:07 48.71399 8.67999 3810 ft 165 kts 185°
2026-04-24 21:07 48.70249 8.67872 3987 ft 165 kts 183°
2026-04-24 21:07 48.69083 8.67761 4000 ft 173 kts 184°
2026-04-24 21:08 48.67871 8.67633 4000 ft 177 kts 184°
2026-04-24 21:08 48.66627 8.67498 4024 ft 181 kts 184°
2026-04-24 21:08 48.65346 8.67359 4006 ft 184 kts 184°
2026-04-24 21:08 48.64071 8.67219 4001 ft 185 kts 184°
2026-04-24 21:09 48.62786 8.67089 3999 ft 183 kts 184°
2026-04-24 21:09 48.61513 8.66944 3991 ft 188 kts 184°
2026-04-24 21:09 48.60205 8.66817 3997 ft 186 kts 183°
2026-04-24 21:09 48.58917 8.66675 3988 ft 187 kts 184°
2026-04-24 21:10 48.57619 8.66542 3995 ft 185 kts 184°
2026-04-24 21:10 48.56352 8.66407 4002 ft 185 kts 184°
2026-04-24 21:10 48.55053 8.66272 4010 ft 186 kts 183°
2026-04-24 21:10 48.53774 8.66136 3991 ft 185 kts 184°
2026-04-24 21:11 48.52495 8.65999 3994 ft 183 kts 183°
2026-04-24 21:11 48.51219 8.65860 3993 ft 184 kts 184°
2026-04-24 21:11 48.49948 8.65745 3989 ft 184 kts 182°
2026-04-24 21:11 48.48663 8.65648 4008 ft 186 kts 182°
2026-04-24 21:12 48.47366 8.65551 4011 ft 188 kts 182°
2026-04-24 21:12 48.46033 8.65455 3993 ft 189 kts 182°
2026-04-24 21:12 48.44739 8.65491 4008 ft 188 kts 172°
2026-04-24 21:12 48.43434 8.65819 4001 ft 188 kts 169°
2026-04-24 21:13 48.42169 8.66151 3997 ft 185 kts 169°
2026-04-24 21:13 48.40887 8.66499 3997 ft 186 kts 169°
2026-04-24 21:13 48.39626 8.66830 3993 ft 184 kts 169°
2026-04-24 21:13 48.38365 8.67161 4002 ft 183 kts 170°
2026-04-24 21:14 48.37118 8.67491 3992 ft 183 kts 169°
2026-04-24 21:14 48.35853 8.67828 4004 ft 185 kts 169°
2026-04-24 21:14 48.34633 8.68353 3993 ft 184 kts 153°
2026-04-24 21:14 48.33543 8.69373 3996 ft 182 kts 145°
2026-04-24 21:15 48.32501 8.70432 3998 ft 181 kts 144°
2026-04-24 21:15 48.31495 8.71484 4156 ft 171 kts 144°
2026-04-24 21:15 48.30551 8.72479 4393 ft 162 kts 145°
2026-04-24 21:15 48.29635 8.73442 4649 ft 158 kts 145°
2026-04-24 21:16 48.28746 8.74372 4897 ft 154 kts 146°
2026-04-24 21:16 48.27877 8.75289 5135 ft 153 kts 146°
2026-04-24 21:16 48.27010 8.76193 5402 ft 153 kts 147°
2026-04-24 21:16 48.26095 8.77149 5494 ft 167 kts 146°
2026-04-24 21:17 48.25122 8.78170 5508 ft 172 kts 146°
2026-04-24 21:17 48.24131 8.79206 5519 ft 176 kts 146°
2026-04-24 21:17 48.23121 8.80266 5506 ft 180 kts 146°
2026-04-24 21:17 48.22099 8.81337 5511 ft 179 kts 146°
2026-04-24 21:18 48.21076 8.82408 5513 ft 178 kts 146°
2026-04-24 21:18 48.20066 8.83462 5513 ft 178 kts 146°
2026-04-24 21:18 48.19025 8.84548 5505 ft 181 kts 146°
2026-04-24 21:18 48.18333 8.85270 5505 ft 184 kts 146°
2026-04-24 21:19 48.17749 8.85883 5498 ft 183 kts 146°
2026-04-24 21:19 48.16720 8.86958 5502 ft 180 kts 146°
2026-04-24 21:19 48.15696 8.88031 5514 ft 180 kts 146°
2026-04-24 21:19 48.14672 8.89095 5501 ft 180 kts 146°
2026-04-24 21:20 48.12610 8.91241 5513 ft 181 kts 146°
2026-04-24 21:20 48.11567 8.92326 5517 ft 183 kts 146°
2026-04-24 21:20 48.10510 8.93439 5505 ft 185 kts 146°
2026-04-24 21:21 48.09467 8.94524 5515 ft 184 kts 147°
2026-04-24 21:21 48.08423 8.95602 5523 ft 185 kts 146°
2026-04-24 21:21 48.08063 8.95978 5515 ft 186 kts 146°
2026-04-24 21:21 48.07248 8.96826 5501 ft 187 kts 146°
2026-04-24 21:22 48.06186 8.97934 5508 ft 186 kts 146°
2026-04-24 21:22 48.05122 8.99047 5502 ft 184 kts 146°
2026-04-24 21:22 48.04080 9.00118 5503 ft 181 kts 147°
2026-04-24 21:22 48.03043 9.01193 5511 ft 180 kts 147°
2026-04-24 21:23 48.02016 9.02259 5503 ft 181 kts 146°
2026-04-24 21:23 48.00995 9.03327 5513 ft 182 kts 147°
2026-04-24 21:23 47.99946 9.04411 5516 ft 183 kts 147°
2026-04-24 21:23 47.98898 9.05496 5504 ft 181 kts 146°
2026-04-24 21:24 47.97861 9.06574 5505 ft 180 kts 146°
2026-04-24 21:24 47.96845 9.07628 5504 ft 179 kts 146°
2026-04-24 21:24 47.95813 9.08692 5503 ft 179 kts 147°
2026-04-24 21:24 47.94797 9.09748 5513 ft 180 kts 146°
2026-04-24 21:25 47.93775 9.10811 5509 ft 180 kts 147°
2026-04-24 21:25 47.92736 9.11879 5505 ft 180 kts 147°
2026-04-24 21:25 47.91697 9.12937 5509 ft 180 kts 146°
2026-04-24 21:25 47.90678 9.14011 5514 ft 180 kts 146°
2026-04-24 21:26 47.89651 9.15076 5513 ft 181 kts 146°
2026-04-24 21:26 47.88619 9.16134 5499 ft 180 kts 146°
2026-04-24 21:26 47.87585 9.17201 5508 ft 180 kts 146°
2026-04-24 21:26 47.86556 9.18256 5511 ft 180 kts 146°
2026-04-24 21:27 47.85521 9.19337 5506 ft 180 kts 147°
2026-04-24 21:27 47.84498 9.20387 5502 ft 179 kts 147°
2026-04-24 21:27 47.83487 9.21424 5499 ft 177 kts 146°
2026-04-24 21:27 47.82472 9.22472 5499 ft 176 kts 146°
2026-04-24 21:28 47.81475 9.23502 5500 ft 176 kts 147°
2026-04-24 21:28 47.80461 9.24545 5496 ft 176 kts 147°
2026-04-24 21:28 47.79460 9.25570 5500 ft 176 kts 146°
2026-04-24 21:28 47.78450 9.26606 5500 ft 176 kts 147°
2026-04-24 21:29 47.77455 9.27636 5498 ft 175 kts 146°
2026-04-24 21:29 47.76451 9.28675 5499 ft 176 kts 146°
2026-04-24 21:29 47.75452 9.29698 5501 ft 176 kts 146°
2026-04-24 21:29 47.74435 9.30740 5500 ft 177 kts 147°
2026-04-24 21:30 47.73426 9.31774 5499 ft 177 kts 146°
2026-04-24 21:30 47.72421 9.32808 5500 ft 176 kts 146°
2026-04-24 21:30 47.71405 9.33849 5503 ft 177 kts 146°
2026-04-24 21:30 47.70401 9.34879 5501 ft 176 kts 145°
2026-04-24 21:31 47.69385 9.35924 5500 ft 176 kts 146°
2026-04-24 21:31 47.68386 9.36943 5501 ft 175 kts 146°
2026-04-24 21:31 47.67388 9.37966 5502 ft 175 kts 146°
2026-04-24 21:31 47.66379 9.39002 5499 ft 176 kts 146°
2026-04-24 21:32 47.65375 9.40027 5503 ft 175 kts 146°
2026-04-24 21:32 47.64370 9.41054 5502 ft 175 kts 146°
2026-04-24 21:32 47.63374 9.42073 5499 ft 175 kts 146°
2026-04-24 21:32 47.62380 9.43090 5502 ft 174 kts 146°
2026-04-24 21:33 47.61384 9.44108 5498 ft 174 kts 146°
2026-04-24 21:33 47.60716 9.44790 5500 ft 174 kts 146°
2026-04-24 21:33 47.59388 9.46148 5498 ft 174 kts 146°
2026-04-24 21:33 47.58387 9.47168 5498 ft 174 kts 146°
2026-04-24 21:34 47.57397 9.48180 5497 ft 174 kts 146°
2026-04-24 21:34 47.56400 9.49196 5499 ft 174 kts 146°
2026-04-24 21:34 47.55408 9.50207 5500 ft 174 kts 146°
2026-04-24 21:34 47.54402 9.51233 5500 ft 174 kts 146°
2026-04-24 21:35 47.53409 9.52245 5500 ft 174 kts 145°
2026-04-24 21:35 47.52417 9.53255 5500 ft 174 kts 146°
2026-04-24 21:35 47.51416 9.54274 5499 ft 173 kts 146°
2026-04-24 21:35 47.50429 9.55279 5499 ft 173 kts 146°
2026-04-24 21:36 47.49430 9.56296 5501 ft 174 kts 146°
2026-04-24 21:36 47.48438 9.57304 5501 ft 175 kts 146°
2026-04-24 21:36 47.47434 9.58326 5501 ft 175 kts 146°
2026-04-24 21:36 47.46450 9.59356 5493 ft 175 kts 130°
2026-04-24 21:37 47.46021 9.61022 5500 ft 175 kts 99°
2026-04-24 21:37 47.45825 9.62787 5497 ft 175 kts 108°
2026-04-24 21:37 47.45084 9.64181 5500 ft 171 kts 143°
2026-04-24 21:37 47.44153 9.64878 5309 ft 155 kts 162°
2026-04-24 21:38 47.43096 9.65483 5316 ft 161 kts 155°
2026-04-24 21:38 47.42021 9.65776 5444 ft 159 kts 179°
2026-04-24 21:38 47.40911 9.65806 5502 ft 162 kts 179°
2026-04-24 21:38 47.39760 9.65832 5504 ft 166 kts 180°
2026-04-24 21:39 47.38605 9.65812 5533 ft 168 kts 185°
2026-04-24 21:39 47.37479 9.65469 5587 ft 164 kts 199°
2026-04-24 21:39 47.36440 9.64757 5618 ft 163 kts 209°
2026-04-24 21:39 47.35456 9.63942 5594 ft 166 kts 210°
2026-04-24 21:40 47.34474 9.63100 5654 ft 163 kts 211°
2026-04-24 21:40 47.33476 9.62247 5599 ft 167 kts 210°
2026-04-24 21:40 47.32485 9.61374 5578 ft 167 kts 211°
2026-04-24 21:40 47.31491 9.60487 5574 ft 166 kts 213°
2026-04-24 21:41 47.30535 9.59548 5576 ft 166 kts 214°
2026-04-24 21:41 47.29588 9.58589 5588 ft 165 kts 215°
2026-04-24 21:41 47.28644 9.57638 5600 ft 165 kts 213°
2026-04-24 21:41 47.27657 9.56768 5613 ft 164 kts 210°
2026-04-24 21:42 47.26649 9.55995 5595 ft 165 kts 205°
2026-04-24 21:42 47.25596 9.55302 5610 ft 164 kts 204°
2026-04-24 21:42 47.24572 9.54586 5615 ft 165 kts 207°
2026-04-24 21:42 47.23562 9.53801 5606 ft 165 kts 207°
2026-04-24 21:43 47.22497 9.53171 5633 ft 164 kts 197°
2026-04-24 21:43 47.21398 9.52771 5635 ft 165 kts 190°
2026-04-24 21:43 47.20264 9.52486 5583 ft 167 kts 190°
2026-04-24 21:43 47.19112 9.52173 5570 ft 167 kts 190°
2026-04-24 21:44 47.17986 9.51878 5610 ft 164 kts 190°
2026-04-24 21:44 47.16843 9.51616 5552 ft 168 kts 188°
2026-04-24 21:44 47.15676 9.51340 5493 ft 169 kts 190°
2026-04-24 21:44 47.14537 9.51037 5522 ft 166 kts 190°
2026-04-24 21:45 47.13392 9.50795 5518 ft 166 kts 187°
2026-04-24 21:45 47.12246 9.50627 5542 ft 165 kts 186°
2026-04-24 21:45 47.11107 9.50412 5528 ft 166 kts 188°
2026-04-24 21:45 47.09974 9.50141 5545 ft 165 kts 189°
2026-04-24 21:46 47.08829 9.49928 5550 ft 165 kts 187°
2026-04-24 21:46 47.07678 9.49823 5529 ft 166 kts 179°
2026-04-24 21:46 47.06545 9.50045 5549 ft 165 kts 166°
2026-04-24 21:46 47.05462 9.50642 5547 ft 165 kts 157°
2026-04-24 21:47 47.04420 9.51320 5547 ft 166 kts 155°
2026-04-24 21:47 47.03721 9.51798 5542 ft 166 kts 155°
2026-04-24 21:47 47.03384 9.52027 5555 ft 165 kts 155°
2026-04-24 21:50 47.02715 9.52515 5572 ft 164 kts 151°
2026-04-24 21:50 47.01709 9.53358 5524 ft 167 kts 151°
2026-04-24 21:50 47.00656 9.54050 5568 ft 164 kts 162°
2026-04-24 21:51 46.99564 9.54452 5580 ft 164 kts 169°
2026-04-24 21:51 46.98429 9.54703 5576 ft 165 kts 174°
2026-04-24 21:51 46.97287 9.54896 5594 ft 165 kts 173°
2026-04-24 21:51 46.96139 9.55025 5592 ft 165 kts 176°
2026-04-24 21:52 46.94991 9.55127 5602 ft 165 kts 176°
2026-04-24 21:52 46.93846 9.55229 5615 ft 164 kts 178°
2026-04-24 21:52 46.92709 9.55216 5603 ft 165 kts 183°
2026-04-24 21:52 46.91568 9.54978 5588 ft 167 kts 192°
2026-04-24 21:53 46.90456 9.54476 5570 ft 168 kts 202°
2026-04-24 21:53 46.89378 9.53802 5558 ft 167 kts 204°
2026-04-24 21:53 46.88309 9.53189 5658 ft 164 kts 197°
2026-04-24 21:53 46.87242 9.52655 5664 ft 166 kts 205°
2026-04-24 21:54 46.86243 9.51795 5660 ft 167 kts 215°
2026-04-24 21:54 46.85372 9.50686 5698 ft 166 kts 227°
2026-04-24 21:54 46.84653 9.49360 5678 ft 168 kts 237°
2026-04-24 21:54 46.84080 9.47847 5643 ft 170 kts 245°
2026-04-24 21:55 46.83769 9.46817 5717 ft 165 kts 246°
2026-04-24 21:55 46.83296 9.45294 5727 ft 165 kts 244°
2026-04-24 21:55 46.82659 9.43279 5771 ft 163 kts 246°
2026-04-24 21:55 46.82029 9.41911 5690 ft 168 kts 223°
2026-04-24 21:56 46.81379 9.41234 5645 ft 169 kts 207°
2026-04-24 21:56 46.80282 9.40815 5737 ft 163 kts 180°
2026-04-24 21:56 46.79164 9.41196 5673 ft 166 kts 161°
2026-04-24 21:56 46.78088 9.41730 5729 ft 163 kts 160°
2026-04-24 21:57 46.77039 9.42371 5730 ft 164 kts 155°
2026-04-24 21:57 46.75988 9.43027 5748 ft 164 kts 160°
2026-04-24 21:57 46.74909 9.43543 5757 ft 164 kts 161°
2026-04-24 21:57 46.73847 9.44046 5845 ft 159 kts 164°
2026-04-24 21:58 46.72763 9.44471 5841 ft 163 kts 165°
2026-04-24 21:58 46.71672 9.44856 5929 ft 160 kts 168°
2026-04-24 21:58 46.70561 9.45131 5935 ft 162 kts 171°
2026-04-24 21:58 46.69439 9.45301 5996 ft 161 kts 178°
2026-04-24 21:59 46.68317 9.45284 6054 ft 162 kts 180°
2026-04-24 21:59 46.67199 9.45255 6074 ft 163 kts 182°
2026-04-24 21:59 46.66072 9.45125 6124 ft 162 kts 187°
2026-04-24 21:59 46.64964 9.44752 6132 ft 165 kts 197°
2026-04-24 22:00 46.63871 9.44255 6193 ft 163 kts 194°
2026-04-24 22:00 46.62767 9.43882 6224 ft 164 kts 194°
2026-04-24 22:00 46.61667 9.43427 6240 ft 164 kts 198°
2026-04-24 22:00 46.60611 9.42868 6314 ft 163 kts 202°
2026-04-24 22:01 46.59518 9.42406 6328 ft 165 kts 191°
2026-04-24 22:01 46.58390 9.42141 6389 ft 161 kts 192°
2026-04-24 22:01 46.57361 9.41534 6413 ft 163 kts 213°
2026-04-24 22:01 46.56638 9.40350 6575 ft 154 kts 248°
2026-04-24 22:02 46.56460 9.38810 6521 ft 160 kts 271°
2026-04-24 22:02 46.56461 9.37196 6575 ft 159 kts 265°
2026-04-24 22:02 46.56175 9.35644 6624 ft 158 kts 252°
2026-04-24 22:02 46.55836 9.34174 6872 ft 146 kts 254°
2026-04-24 22:03 46.55512 9.32769 6910 ft 153 kts 250°
2026-04-24 22:03 46.55158 9.31378 7049 ft 147 kts 254°
2026-04-24 22:03 46.54871 9.29945 7122 ft 149 kts 257°
2026-04-24 22:03 46.54586 9.28499 7218 ft 150 kts 255°
2026-04-24 22:04 46.54329 9.27025 7271 ft 148 kts 259°
2026-04-24 22:04 46.54100 9.25569 7333 ft 149 kts 257°
2026-04-24 22:04 46.53832 9.24143 7474 ft 148 kts 257°
2026-04-24 22:04 46.53585 9.22695 7565 ft 146 kts 259°
2026-04-24 22:05 46.53377 9.21293 7718 ft 136 kts 258°
2026-04-24 22:05 46.53111 9.19999 7939 ft 132 kts 254°
2026-04-24 22:05 46.52814 9.18754 8097 ft 127 kts 249°
2026-04-24 22:05 46.52266 9.17767 8217 ft 133 kts 213°
2026-04-24 22:06 46.51329 9.17400 8109 ft 151 kts 181°
2026-04-24 22:06 46.50262 9.17470 8126 ft 153 kts 176°
2026-04-24 22:06 46.49183 9.17572 8149 ft 154 kts 175°
2026-04-24 22:06 46.48131 9.17795 8119 ft 156 kts 166°
2026-04-24 22:07 46.47126 9.18442 7982 ft 161 kts 149°
2026-04-24 22:07 46.46121 9.19232 7870 ft 167 kts 150°
2026-04-24 22:07 46.45101 9.20029 7763 ft 172 kts 153°
2026-04-24 22:07 46.44044 9.20833 7662 ft 172 kts 150°
2026-04-24 22:08 46.42988 9.21678 7490 ft 174 kts 149°
2026-04-24 22:08 46.41931 9.22515 7279 ft 177 kts 154°
2026-04-24 22:08 46.40756 9.23052 6982 ft 179 kts 166°
2026-04-24 22:08 46.39534 9.23270 6731 ft 178 kts 177°
2026-04-24 22:09 46.38290 9.23107 6500 ft 175 kts 194°
2026-04-24 22:09 46.37148 9.22591 6246 ft 174 kts 200°
2026-04-24 22:09 46.35996 9.22057 6007 ft 175 kts 198°
2026-04-24 22:09 46.34851 9.21467 5775 ft 173 kts 202°
2026-04-24 22:10 46.33727 9.20843 5530 ft 171 kts 201°
2026-04-24 22:10 46.32623 9.20217 5290 ft 171 kts 203°
2026-04-24 22:10 46.31561 9.19495 5054 ft 169 kts 207°
2026-04-24 22:10 46.30479 9.18826 4813 ft 171 kts 200°
2026-04-24 22:11 46.29355 9.18315 4693 ft 167 kts 194°
2026-04-24 22:11 46.28199 9.17932 4501 ft 170 kts 197°
2026-04-24 22:11 46.27110 9.17379 4388 ft 168 kts 203°
2026-04-24 22:11 46.26076 9.16634 4211 ft 168 kts 210°
2026-04-24 22:12 46.25123 9.15663 4085 ft 166 kts 224°
2026-04-24 22:12 46.24371 9.14417 3939 ft 165 kts 238°
2026-04-24 22:12 46.23874 9.12923 3759 ft 164 kts 252°
2026-04-24 22:12 46.23567 9.11352 3627 ft 163 kts 258°
2026-04-24 22:13 46.23310 9.09758 3496 ft 163 kts 259°
2026-04-24 22:13 46.23070 9.08160 3380 ft 162 kts 258°
2026-04-24 22:13 46.22767 9.06634 3300 ft 156 kts 253°
2026-04-24 22:13 46.22274 9.05266 3259 ft 155 kts 234°
2026-04-24 22:14 46.21544 9.04128 3247 ft 154 kts 224°
2026-04-24 22:14 46.20731 9.03163 3238 ft 151 kts 218°
2026-04-24 22:14 46.19936 9.02215 3272 ft 147 kts 224°
2026-04-24 22:14 46.19185 9.01144 3143 ft 153 kts 226°
2026-04-24 22:15 46.18480 9.00038 3111 ft 151 kts 229°
2026-04-24 22:15 46.17830 8.98891 3132 ft 145 kts 236°
2026-04-24 22:15 46.17342 8.97596 3028 ft 148 kts 252°
2026-04-24 22:15 46.17108 8.96171 3034 ft 144 kts 261°
2026-04-24 22:16 46.16926 8.94757 3004 ft 146 kts 259°
2026-04-24 22:16 46.16711 8.93348 3017 ft 142 kts 258°
2026-04-24 22:16 46.16474 8.91990 2992 ft 137 kts 256°
2026-04-24 22:16 46.16219 8.90681 3002 ft 136 kts 256°
2026-04-24 22:17 46.15954 8.89343 2968 ft 141 kts 256°
2026-04-24 22:17 46.15695 8.87979 3040 ft 141 kts 257°
2026-04-24 22:17 46.15421 8.86640 3143 ft 137 kts 254°
2026-04-24 22:17 46.15121 8.85298 3135 ft 143 kts 253°
2026-04-24 22:18 46.14826 8.83933 3101 ft 146 kts 254°
2026-04-24 22:18 46.14539 8.82522 3056 ft 147 kts 255°
2026-04-24 22:18 46.14251 8.81122 3025 ft 147 kts 249°
2026-04-24 22:18 46.13775 8.79821 3026 ft 146 kts 241°
2026-04-24 22:19 46.13241 8.78577 2996 ft 147 kts 238°
2026-04-24 22:19 46.12630 8.77389 2994 ft 146 kts 231°
2026-04-24 22:19 46.11944 8.76304 2977 ft 146 kts 227°
2026-04-24 22:19 46.11228 8.75265 2938 ft 148 kts 224°
2026-04-24 22:20 46.10440 8.74326 2936 ft 147 kts 217°
2026-04-24 22:20 46.09576 8.73513 2869 ft 150 kts 212°
2026-04-24 22:20 46.08659 8.72833 2888 ft 148 kts 201°
2026-04-24 22:20 46.07641 8.72570 2895 ft 150 kts 179°
2026-04-24 22:21 46.06589 8.72631 2790 ft 154 kts 176°
2026-04-24 22:21 46.05518 8.72705 2696 ft 155 kts 176°
2026-04-24 22:21 46.04445 8.72862 2658 ft 153 kts 171°
2026-04-24 22:21 46.03495 8.73454 2589 ft 153 kts 138°
2026-04-24 22:22 46.02845 8.74627 2541 ft 151 kts 131°
2026-04-24 22:22 46.02041 8.75597 2513 ft 152 kts 145°
2026-04-24 22:22 46.01167 8.76449 2472 ft 152 kts 145°
2026-04-24 22:22 46.00396 8.77464 2466 ft 150 kts 124°
2026-04-24 22:23 45.99981 8.78845 2410 ft 150 kts 106°
2026-04-24 22:23 45.99669 8.80246 2420 ft 147 kts 108°
2026-04-24 22:23 45.99334 8.81649 2392 ft 146 kts 107°
2026-04-24 22:23 45.98934 8.82947 2454 ft 143 kts 123°
2026-04-24 22:24 45.98293 8.83978 2406 ft 134 kts 141°
2026-04-24 22:24 45.97589 8.84760 2343 ft 119 kts 142°
2026-04-24 22:24 45.96957 8.85506 2267 ft 116 kts 133°
2026-04-24 22:24 45.96416 8.86361 2235 ft 114 kts 130°
2026-04-24 22:25 45.95917 8.87223 2149 ft 110 kts 127°
2026-04-24 22:25 45.95357 8.87892 2152 ft 105 kts 155°
2026-04-24 22:25 45.94678 8.88289 2133 ft 107 kts 158°
2026-04-24 22:25 45.94032 8.88776 2172 ft 102 kts 137°
2026-04-24 22:26 45.93785 8.89674 2272 ft 97 kts 84°
2026-04-24 22:26 45.94147 8.90458 2297 ft 101 kts 30°
2026-04-24 22:26 45.94845 8.90485 2272 ft 110 kts 335°
2026-04-24 22:26 45.95533 8.89984 2254 ft 109 kts 332°
2026-04-24 22:27 45.96167 8.89469 2075 ft 101 kts 333°
2026-04-24 22:27 45.96839 8.89322 1845 ft 99 kts
2026-04-24 22:27 45.97499 8.89590 1612 ft 93 kts 18°
2026-04-24 22:27 45.98077 8.89844 1407 ft 84 kts 20°
2026-04-24 22:28 45.98609 8.90152 1252 ft 83 kts 19°
2026-04-24 22:28 45.99151 8.90416 1130 ft 81 kts 18°
2026-04-24 22:28 45.99681 8.90687 1011 ft 82 kts 19°
2026-04-24 22:28 46.00162 8.90931 904 ft 59 kts 18°
2026-04-24 22:29 46.00447 8.91030 905 ft 8 kts 292°
2026-04-24 22:29 46.00433 8.90950 898 ft 11 kts 198°
2026-04-24 22:29 46.00362 8.90915 898 ft 11 kts 198°
2026-04-24 22:30 46.00324 8.90866 898 ft 8 kts 293°
2026-04-24 22:30 46.00327 8.90819 897 ft 3 kts 195°
2026-04-24 22:30 46.00302 8.90809 897 ft 4 kts 201°
2026-04-24 22:30 46.00298 8.90807 897 ft 0 kts 200°